Udon Thani, Thailand

3:29 AM ICT on February 12, 2016 (GMT +0700)
Udon Thani

Weather History for VTUD - January, 2014

Change the Weather History Date:

Monday, January 6, 2014

  Actual Average (VLVT) Record (VLVT)
Temperature  
Mean Temperature 74 °F -  
Max Temperature 87 °F 86 °F 91 °F (2000)
Min Temperature 60 °F 61 °F 57 °F (2001)
Cooling Degree Days 8    
Growing Degree Days 24 (Base 50)    
Moisture  
Dew Point 60 °F    
Average Humidity 60    
Maximum Humidity 94    
Minimum Humidity 30    
Precipitation  
Precipitation 0.00 in 0.01 in - ()
Sea Level Pressure  
Sea Level Pressure 29.89 in    
Wind  
Wind Speed 1 mph ()    
Max Wind Speed 4 mph    
Max Gust Speed -    
Visibility 1.8 miles    
Events Fog    
Averages and records for this station are not official NWS values.
T = Trace of Precipitation, MM = Missing Value Source: Averaged Metar Reports

Daily Weather History Graph

Daily Weather History Graph

Search for Another Location

Airport or City:

Trip Planner

Search our weather history database for the weather conditions in past years. The results will help you decide how hot, cold, wet, or windy it might be!

Date:

Astronomy

Jan. 06, 2014 Rise Set
Actual Time 6:40 AM ICT 5:48 PM ICT
Civil Twilight 6:16 AM ICT 6:12 PM ICT
Nautical Twilight 5:50 AM ICT 6:39 PM ICT
Astronomical Twilight 5:23 AM ICT 7:05 PM ICT
Moon 10:27 AM ICT (1/6) 10:52 PM ICT (1/6)
Length of Visible Light 11h 55m
Length of Day
11h 08m
Waxing Crescent, 29% of the Moon is Illuminated
Jan 6
Waxing Crescent
Jan 8
First Quarter
Jan 16
Full
Jan 24
Last Quarter
Jan 31
New

Hourly Weather History & Observations

Time (ICT) Temp. Heat Index Dew Point Humidity Pressure Visibility Wind Dir Wind Speed Gust Speed Precip Events Conditions
1:00 AM 64 °F - 61 °F 86% 29.89 in 2 mi Calm Calm - -   Mist
4:00 AM 62 °F - 59 °F 87% 29.88 in 1 mi Calm Calm - -   Mist
6:00 AM 60.8 °F - 59.0 °F 94% 29.92 in 0.9 mi Calm Calm - N/A   Mist
7:00 AM 61 °F - 59 °F 89% 29.93 in 0 mi Calm Calm - - Fog Partial Fog
7:00 AM 60.8 °F - 59.0 °F 94% 29.92 in - Calm Calm - N/A Fog Fog
9:00 AM 69.8 °F - 62.6 °F 78% 29.98 in 1.2 mi Calm Calm - N/A   Mist
10:00 AM 73 °F - 62 °F 61% 29.95 in 2 mi SSE 1.2 mph - -   Mist
10:00 AM 75.2 °F - 60.8 °F 61% 29.98 in 1.7 mi Variable 2.3 mph - N/A   Mist
11:00 AM 78.8 °F - 59.0 °F 51% 29.95 in 1.9 mi Variable 3.5 mph - N/A   Haze
12:00 PM 82.4 °F 81.7 °F 55.4 °F 39% 29.92 in 1.9 mi Variable 2.3 mph - N/A   Haze
1:00 PM 85 °F - 58 °F 30% 29.86 in 2 mi WNW 3.5 mph - -   Haze
1:00 PM 84.2 °F 82.8 °F 53.6 °F 35% 29.89 in 2.2 mi Variable 3.5 mph - N/A   Haze
2:00 PM 84.2 °F 83.5 °F 57.2 °F 40% 29.86 in 2.5 mi Variable 2.3 mph - N/A   Haze
3:00 PM 86.0 °F 84.9 °F 57.2 °F 37% 29.83 in 2.5 mi Variable 2.3 mph - N/A   Haze
4:00 PM 87 °F - 61 °F 31% 29.83 in 2 mi SSW 2.3 mph - -   Haze
4:00 PM 86.0 °F 84.5 °F 55.4 °F 35% 29.83 in 2.2 mi Variable 1.2 mph - N/A   Haze
5:00 PM 84.2 °F 83.5 °F 57.2 °F 40% 29.83 in 1.9 mi NNW 3.5 mph - N/A   Haze
6:00 PM 78.8 °F - 59.0 °F 51% 29.86 in 1.9 mi North 2.3 mph - N/A   Haze
7:00 PM 78 °F - 65 °F 55% 29.85 in 2 mi Calm Calm - -   Haze
7:00 PM 73.4 °F - 60.8 °F 65% 29.86 in 1.9 mi Calm Calm - N/A   Haze
8:00 PM 73.4 °F - 60.8 °F 65% 29.89 in 1.9 mi Calm Calm - N/A   Haze
9:00 PM 71.6 °F - 62.6 °F 73% 29.89 in 1.9 mi Calm Calm - N/A   Haze
10:00 PM 71 °F - 66 °F 79% 29.88 in 2 mi Calm Calm - -   Mist